Location: Briis
(48.6240°N, 2.1211°E)
Time: 19:23:46
(UTC+00:00)

SAR-Lupe-4 - Pass Details

Date: 25 September 2020
Orbit: 482 x 484 km, 98.2° (Epoch: 09 October)

Event Time Altitude Azimuth Distance (km) Brightness Sun altitude
Rises 04:10:13 0° 156° (SSE) 2,538 7.3 -15.9°
Reaches altitude 10° 04:12:17 10° 152° (SSE) 1,662 6.4 -15.6°
Maximum altitude 04:15:48 60° 72° (ENE) 562 4.2 -15.0°
Drops below altitude 10° 04:19:21 10° 353° (N) 1,675 6.4 -14.5°
Sets 04:21:26 0° 350° (N) 2,560 7.3 -14.1°
